| time (UTC) | temp F | wind direction | speed MPH | gust MPH | rain 1hr in | rain 24hr in | rain mn in | humidity % | barometer mb |
| 20260510200537 | 66 | 243 | 2.0 | 5.0 | 0.00 | 0.01 | 0.01 | 74 | 1012.4 |
| 20260510195029 | 65 | 209 | 3.0 | 6.0 | 0.00 | 0.05 | 0.01 | 76 | 1012.4 |
| 20260510193529 | 66 | 305 | 1.0 | 3.0 | 0.00 | 0.05 | 0.01 | 73 | 1012.8 |
| 20260510192044 | 66 | 248 | 1.0 | 5.0 | 0.00 | 0.05 | 0.01 | 73 | 1012.8 |
| 20260510190543 | 67 | 244 | 2.0 | 5.0 | 0.00 | 0.05 | 0.01 | 72 | 1012.7 |
| 20260510185034 | 67 | 284 | 4.0 | 5.0 | 0.00 | 0.10 | 0.01 | 71 | 1012.8 |
| 20260510183532 | 67 | 234 | 1.0 | 8.0 | 0.00 | 0.10 | 0.01 | 74 | 1012.7 |
| 20260510182031 | 67 | 265 | 2.0 | 7.0 | 0.00 | 0.10 | 0.01 | 74 | 1012.6 |
| 20260510180534 | 67 | 56 | 1.0 | 3.0 | 0.00 | 0.10 | 0.01 | 74 | 1012.6 |
| 20260510175042 | 67 | 299 | 1.0 | 7.0 | 0.00 | 0.21 | 0.01 | 74 | 1012.7 |
| 20260510173600 | 68 | 298 | 2.0 | 8.0 | 0.00 | 0.21 | 0.01 | 69 | 1012.7 |
| 20260510172048 | 68 | 307 | 0.0 | 4.0 | 0.00 | 0.21 | 0.01 | 68 | 1012.6 |
| 20260510170547 | 68 | 114 | 1.0 | 4.0 | 0.00 | 0.21 | 0.01 | 69 | 1012.4 |
| 20260510165040 | 68 | 218 | 1.0 | 7.0 | 0.00 | 0.23 | 0.01 | 68 | 1012.5 |
| 20260510163607 | 69 | 27 | 1.0 | 4.0 | 0.00 | 0.23 | 0.01 | 67 | 1012.3 |
| 20260510162038 | 70 | 40 | 1.0 | 7.0 | 0.00 | 0.23 | 0.01 | 66 | 1012.2 |
| 20260510160539 | 69 | 321 | 1.0 | 8.0 | 0.00 | 0.23 | 0.01 | 68 | 1012.1 |
| 20260510155034 | 69 | 295 | 2.0 | 4.0 | 0.00 | 0.23 | 0.01 | 68 | 1012.1 |
| 20260510153532 | 70 | 37 | 2.0 | 9.0 | 0.00 | 0.23 | 0.01 | 68 | 1012.0 |
| 20260510152027 | 69 | 300 | 2.0 | 7.0 | 0.00 | 0.23 | 0.01 | 71 | 1012.0 |
| 20260510150535 | 68 | 195 | 3.0 | 9.0 | 0.00 | 0.23 | 0.01 | 72 | 1011.9 |
| 20260510145033 | 67 | 247 | 4.0 | 7.0 | 0.00 | 0.24 | 0.01 | 72 | 1011.7 |
| 20260510143536 | 67 | 201 | 3.0 | 9.0 | 0.00 | 0.24 | 0.01 | 73 | 1011.8 |
| 20260510142040 | 66 | 262 | 4.0 | 9.0 | 0.01 | 0.24 | 0.01 | 74 | 1011.7 |
| 20260510140540 | 65 | 209 | 2.0 | 10.0 | 0.01 | 0.24 | 0.01 | 75 | 1011.7 |
| 20260510135052 | 64 | 278 | 1.0 | 6.0 | 0.01 | 0.24 | 0.01 | 79 | 1011.5 |
| 20260510133531 | 62 | 304 | 4.0 | 8.0 | 0.01 | 0.24 | 0.01 | 82 | 1011.4 |
| 20260510132026 | 60 | 267 | 2.0 | 5.0 | 0.00 | 0.23 | 0.00 | 88 | 1011.5 |
| 20260510130543 | 58 | 276 | 2.0 | 4.0 | 0.00 | 0.23 | 0.00 | 93 | 1011.7 |
| 20260510125038 | 57 | 276 | 2.0 | 5.0 | 0.00 | 0.23 | 0.00 | 94 | 1011.8 |
| 20260510123535 | 56 | 348 | 0.0 | 4.0 | 0.00 | 0.23 | 0.00 | 95 | 1011.7 |
| 20260510122032 | 54 | 146 | 1.0 | 4.0 | 0.00 | 0.23 | 0.00 | 96 | 1011.5 |
| 20260510120559 | 54 | 95 | 0.0 | 1.0 | 0.00 | 0.23 | 0.00 | 96 | 1011.5 |
| 20260510115032 | 52 | 270 | 1.0 | 3.0 | 0.00 | 0.23 | 0.00 | 96 | 1011.2 |
| 20260510113602 | 52 | 309 | 0.0 | 0.0 | 0.00 | 0.23 | 0.00 | 96 | 1011.1 |
| 20260510112038 | 52 | 309 | 0.0 | 0.0 | 0.00 | 0.23 | 0.00 | 96 | 1011.0 |
| 20260510110539 | 51 | 309 | 0.0 | 0.0 | 0.00 | 0.23 | 0.00 | 96 | 1010.8 |
| 20260510105029 | 51 | 309 | 0.0 | 0.0 | 0.00 | 0.23 | 0.00 | 95 | 1010.9 |
| 20260510103529 | 51 | 309 | 0.0 | 2.0 | 0.00 | 0.23 | 0.00 | 95 | 1010.4 |
| 20260510102044 | 51 | 40 | 0.0 | 0.0 | 0.00 | 0.23 | 0.00 | 96 | 1010.4 |
| 20260510100545 | 51 | 40 | 0.0 | 0.0 | 0.00 | 0.23 | 0.00 | 96 | 1010.3 |
| 20260510095040 | 50 | 40 | 0.0 | 0.0 | 0.00 | 0.23 | 0.00 | 95 | 1010.1 |
| 20260510093555 | 50 | 40 | 0.0 | 0.0 | 0.00 | 0.23 | 0.00 | 95 | 1010.1 |
| 20260510092049 | 50 | 40 | 0.0 | 0.0 | 0.00 | 0.23 | 0.00 | 95 | 1010.0 |
| 20260510090557 | 50 | 40 | 0.0 | 0.0 | 0.00 | 0.23 | 0.00 | 95 | 1009.9 |
| 20260510085050 | 50 | 40 | 0.0 | 0.0 | 0.00 | 0.23 | 0.00 | 95 | 1009.7 |
| 20260510083549 | 50 | 40 | 0.0 | 0.0 | 0.00 | 0.23 | 0.00 | 95 | 1009.7 |
| 20260510082047 | 50 | 40 | 0.0 | 0.0 | 0.00 | 0.23 | 0.00 | 95 | 1009.8 |
| 20260510080546 | 50 | 40 | 0.0 | 0.0 | 0.00 | 0.23 | 0.00 | 95 | 1010.1 |
| 20260510075041 | 50 | 40 | 0.0 | 0.0 | 0.00 | 0.23 | 0.00 | 95 | 1010.2 |
| 20260510073534 | 50 | 40 | 0.0 | 0.0 | 0.00 | 0.23 | 0.00 | 95 | 1010.5 |
| 20260510072034 | 49 | 40 | 0.0 | 0.0 | 0.00 | 0.23 | 0.00 | 95 | 1010.7 |
| 20260510070541 | 49 | 40 | 0.0 | 0.0 | 0.00 | 0.23 | 0.00 | 95 | 1010.8 |
| 20260510065036 | 48 | 141 | 0.0 | 3.0 | 0.00 | 0.23 | 0.00 | 95 | 1010.8 |
| 20260510063553 | 48 | 19 | 0.0 | 0.0 | 0.00 | 0.23 | 0.00 | 95 | 1010.1 |
| 20260510062047 | 48 | 19 | 0.0 | 0.0 | 0.00 | 0.23 | 0.00 | 94 | 1010.1 |
| 20260510060541 | 49 | 19 | 0.0 | 0.0 | 0.00 | 0.23 | 0.00 | 94 | 1010.4 |
| 20260510055053 | 49 | 19 | 0.0 | 0.0 | 0.00 | 0.23 | 0.00 | 94 | 1010.4 |
| 20260510053552 | 50 | 19 | 1.0 | 2.0 | 0.00 | 0.23 | 0.00 | 94 | 1010.3 |
| 20260510052049 | 50 | 52 | 0.0 | 0.0 | 0.00 | 0.23 | 0.00 | 94 | 1010.3 |
| 20260510050545 | 51 | 49 | 0.0 | 0.0 | 0.00 | 0.23 | 0.00 | 94 | 1010.1 |
| 20260510045113 | 51 | 49 | 0.0 | 0.0 | 0.00 | 0.23 | 0.00 | 94 | 1009.9 |
| 20260510043550 | 52 | 49 | 0.0 | 0.0 | 0.00 | 0.23 | 0.00 | 94 | 1010.0 |
| 20260510042045 | 53 | 49 | 0.0 | 2.0 | 0.00 | 0.23 | 0.00 | 94 | 1009.9 |
| 20260510040547 | 53 | 259 | 0.0 | 3.0 | 0.00 | 0.23 | 0.00 | 95 | 1010.0 |
| 20260510035031 | 53 | 302 | 0.0 | 2.0 | 0.00 | 0.24 | 0.23 | 95 | 1009.9 |
| 20260510033530 | 53 | 277 | 0.0 | 3.0 | 0.00 | 0.24 | 0.23 | 95 | 1009.8 |
| 20260510032043 | 54 | 272 | 1.0 | 2.0 | 0.00 | 0.24 | 0.23 | 95 | 1009.6 |
| 20260510030545 | 54 | 257 | 1.0 | 3.0 | 0.00 | 0.24 | 0.23 | 95 | 1009.7 |
| 20260510025054 | 53 | 281 | 0.0 | 3.0 | 0.00 | 0.24 | 0.23 | 95 | 1009.8 |
| 20260510023542 | 53 | 317 | 2.0 | 6.0 | 0.00 | 0.24 | 0.23 | 95 | 1009.5 |
| 20260510022041 | 53 | 269 | 2.0 | 5.0 | 0.00 | 0.24 | 0.23 | 95 | 1009.6 |
| 20260510020541 | 52 | 237 | 0.0 | 1.0 | 0.00 | 0.24 | 0.23 | 95 | 1009.4 |
| 20260510015100 | 51 | 276 | 0.0 | 2.0 | 0.00 | 0.24 | 0.23 | 93 | 1009.6 |
| 20260510013537 | 51 | 276 | 0.0 | 0.0 | 0.00 | 0.24 | 0.23 | 92 | 1009.5 |
| 20260510012053 | 51 | 276 | 0.0 | 0.0 | 0.00 | 0.24 | 0.23 | 91 | 1009.2 |
| 20260510010603 | 52 | 276 | 0.0 | 0.0 | 0.00 | 0.24 | 0.23 | 90 | 1009.2 |
| 20260510005054 | 53 | 276 | 0.0 | 0.0 | 0.00 | 0.24 | 0.23 | 90 | 1009.2 |
| 20260510003553 | 54 | 276 | 0.0 | 0.0 | 0.00 | 0.24 | 0.23 | 90 | 1009.0 |
| 20260510002053 | 54 | 276 | 0.0 | 0.0 | 0.00 | 0.24 | 0.23 | 90 | 1008.7 |
| 20260510000543 | 55 | 276 | 0.0 | 0.0 | 0.00 | 0.24 | 0.23 | 89 | 1008.7 |
| 20260509235057 | 56 | 276 | 0.0 | 2.0 | 0.00 | 0.24 | 0.23 | 88 | 1008.6 |
| 20260509233532 | 57 | 355 | 0.0 | 0.0 | 0.00 | 0.24 | 0.23 | 87 | 1008.4 |
| 20260509232029 | 57 | 355 | 0.0 | 3.0 | 0.00 | 0.24 | 0.23 | 87 | 1008.4 |
| 20260509230532 | 58 | 224 | 0.0 | 5.0 | 0.00 | 0.24 | 0.23 | 88 | 1008.3 |
| 20260509225102 | 57 | 201 | 0.0 | 2.0 | 0.00 | 0.24 | 0.23 | 88 | 1008.4 |
| 20260509223542 | 57 | 190 | 0.0 | 0.0 | 0.00 | 0.24 | 0.23 | 86 | 1008.3 |
| 20260509222037 | 58 | 278 | 3.0 | 5.0 | 0.00 | 0.24 | 0.23 | 85 | 1008.5 |
| 20260509220602 | 58 | 305 | 1.0 | 6.0 | 0.00 | 0.24 | 0.23 | 87 | 1008.4 |
| 20260509215033 | 58 | 263 | 1.0 | 3.0 | 0.00 | 0.24 | 0.23 | 88 | 1008.4 |
| 20260509213532 | 57 | 51 | 0.0 | 2.0 | 0.00 | 0.24 | 0.23 | 88 | 1008.6 |
| 20260509212044 | 57 | 247 | 1.0 | 4.0 | 0.00 | 0.24 | 0.23 | 88 | 1008.7 |
| 20260509210545 | 56 | 299 | 0.0 | 3.0 | 0.00 | 0.24 | 0.23 | 90 | 1008.8 |
| 20260509205037 | 56 | 45 | 1.0 | 4.0 | 0.00 | 0.24 | 0.23 | 90 | 1009.0 |
| 20260509203554 | 56 | 259 | 0.0 | 3.0 | 0.00 | 0.24 | 0.23 | 92 | 1009.1 |
| 20260509202051 | 55 | 258 | 0.0 | 3.0 | 0.01 | 0.24 | 0.23 | 92 | 1009.1 |